TimeMST,TemperatureF,Dew PointF,Humidity,Sea Level PressureIn,VisibilityMPH,Wind Direction,Wind SpeedMPH,Gust SpeedMPH,PrecipitationIn,Events,Conditions,WindDirDegrees,DateUTC
12:24 AM,8.6,3.2,79,30.04,10.0,North,4.6,-,N/A,,Scattered Clouds,350,2013-02-11 07:24:00
12:53 AM,8.1,3.9,83,30.22,10.0,NNW,6.9,-,N/A,,Mostly Cloudy,330,2013-02-11 07:53:00
1:53 AM,6.1,1.9,83,30.24,10.0,North,3.5,-,N/A,,Overcast,360,2013-02-11 08:53:00
2:15 AM,3.2,-0.4,85,30.03,10.0,North,6.9,-,N/A,,Scattered Clouds,360,2013-02-11 09:15:00
2:53 AM,3.0,-0.9,84,30.24,10.0,North,5.8,-,N/A,,Clear,350,2013-02-11 09:53:00
3:53 AM,-2.0,-5.1,87,30.26,10.0,NNW,4.6,-,N/A,,Clear,330,2013-02-11 10:53:00
4:53 AM,-2.0,-6.0,83,30.26,10.0,North,6.9,-,N/A,,Clear,350,2013-02-11 11:53:00
5:53 AM,-0.9,-6.0,79,30.26,10.0,Calm,Calm,-,N/A,,Clear,0,2013-02-11 12:53:00
6:53 AM,-2.0,-7.1,79,30.28,10.0,Calm,Calm,-,N/A,,Clear,0,2013-02-11 13:53:00
7:53 AM,-2.9,-6.0,87,30.30,7.0,Calm,Calm,-,N/A,,Clear,0,2013-02-11 14:53:00
8:53 AM,1.0,-2.9,83,30.30,10.0,South,6.9,-,N/A,,Clear,180,2013-02-11 15:53:00
9:53 AM,7.0,3.0,84,30.27,10.0,Calm,Calm,-,N/A,,Clear,0,2013-02-11 16:53:00
10:53 AM,10.9,5.0,77,30.24,10.0,Calm,Calm,-,0.04,,Clear,0,2013-02-11 17:53:00
11:53 AM,14.0,6.1,71,30.23,10.0,South,4.6,-,0.05,,Clear,190,2013-02-11 18:53:00
12:53 PM,17.1,7.0,65,30.19,10.0,Calm,Calm,-,0.05,,Clear,0,2013-02-11 19:53:00
1:53 PM,19.9,10.0,65,30.16,10.0,South,4.6,-,0.05,,Clear,180,2013-02-11 20:53:00
2:53 PM,21.0,10.0,63,30.16,10.0,South,3.5,-,0.04,,Clear,190,2013-02-11 21:53:00
3:53 PM,21.0,10.0,63,30.18,10.0,SSW,6.9,-,N/A,,Clear,210,2013-02-11 22:53:00
4:53 PM,19.0,9.0,65,30.19,10.0,SSW,6.9,-,N/A,,Clear,200,2013-02-11 23:53:00
5:53 PM,14.0,6.1,71,30.20,10.0,WSW,6.9,-,N/A,,Clear,240,2013-02-12 00:53:00
6:53 PM,10.9,3.0,70,30.22,10.0,Calm,Calm,-,N/A,,Clear,0,2013-02-12 01:53:00
7:53 PM,3.9,-2.0,76,30.25,10.0,Calm,Calm,-,N/A,,Clear,0,2013-02-12 02:53:00
8:53 PM,3.9,-2.0,76,30.24,10.0,Calm,Calm,-,N/A,,Clear,0,2013-02-12 03:53:00
9:53 PM,3.9,-2.0,76,30.22,10.0,Calm,Calm,-,N/A,,Clear,0,2013-02-12 04:53:00
10:53 PM,5.0,-2.0,73,30.21,10.0,North,3.5,-,N/A,,Clear,350,2013-02-12 05:53:00
11:53 PM,8.1,-0.9,67,30.20,10.0,NW,6.9,-,N/A,,Clear,320,2013-02-12 06:53:00